BEIDOU 3 (C01)

Last updated on Jan. 22, 2021, 6:27 a.m. UTC

1 36287U 10001A   21021.80011836 -.00000271  00000-0  00000-0 0  9992
2 36287   1.6642  39.8643 0003128 122.6461  27.2369  1.00276896 40390
UTC
Height (km)
Latitude
Longitude
Inclination
Orbital Period
UTC large
Height (km)
Speed (km/s)
/
Latitude / Longitude
Inclination (degrees)
Orbital Period (minutes)
Azimuth
Elevation
Range (km)
Doppler Factor
iOS Compass Heading
iOS Angle

Next 30 passes for location: Hong Kong

Rise time Rise Azimuth (degrees) Set time Set Azimuth (degrees) Duration Max altitude (degrees)

No matching passes for this satellites